Theta_e
308 308 307 307 307 307 307 307 307 307 307 307 307 307 307 307 307 307 307 308 307 308 307 307 307 306 307 307 308 311 312 313 313 314 314 315 314 314 315 316 317 316 318 316 313 315 315 314 314 313 316 316 317 318 316 322 326 326 329 324 323 328 328 330 332 327 322 324 326 322 319 318 321 321 315 313 315 317 316 317 319 315 314 312 310 310 311 313
308 308 308 308 307 307 307 307 307 307 307 307 307 307 307 307 306 307 307 307 307 308 308 307 307 307 307 307 308 311 313 314 316 316 316 315 315 315 315 316 317 317 317 314 313 316 317 317 313 314 319 317 317 318 317 320 321 329 331 322 325 332 329 328 332 328 320 320 322 320 319 316 318 318 314 315 319 319 316 317 316 317 317 313 309 309 311 311
309 309 309 308 308 308 308 307 307 307 307 307 307 307 307 307 307 307 307 307 308 308 308 308 307 307 307 307 309 312 313 315 319 320 319 317 318 316 316 317 318 317 316 314 314 315 317 318 312 316 321 317 320 321 322 321 320 329 329 324 331 331 325 325 326 324 321 319 319 319 317 316 318 316 313 316 319 318 317 316 315 318 319 318 317 309 308 310
310 309 309 309 308 309 309 308 308 307 307 307 307 307 307 307 307 307 308 307 308 308 308 308 308 307 307 307 310 313 314 313 315 318 317 316 317 316 316 318 317 316 316 313 313 315 315 314 312 318 320 319 324 322 324 325 322 326 323 326 335 327 322 324 323 322 321 317 316 317 316 317 318 315 315 316 317 317 316 316 315 317 318 318 325 313 306 308
310 310 309 309 309 309 309 310 309 309 308 308 308 308 308 308 308 308 308 308 308 308 308 309 308 308 307 308 311 313 315 314 313 317 318 316 315 316 317 318 317 316 315 313 314 316 314 313 312 318 318 319 323 320 327 328 321 323 322 325 329 322 320 321 321 322 319 316 315 317 317 316 315 314 316 316 316 316 316 318 317 316 318 317 322 314 306 307
310 310 309 309 309 309 309 310 310 310 309 309 309 309 309 309 309 309 309 309 309 309 309 309 309 309 308 308 312 313 314 314 315 316 317 316 315 316 318 318 317 315 313 313 315 315 314 314 313 318 318 318 321 320 324 323 318 322 323 324 324 321 320 319 319 321 319 316 316 317 316 314 314 315 317 317 316 316 315 318 319 317 314 311 314 312 311 311
310 309 309 309 309 309 309 310 310 310 310 310 310 309 309 309 309 309 309 310 309 310 310 310 310 309 308 309 314 317 316 315 315 315 316 315 315 316 318 318 316 313 312 314 314 314 316 316 315 320 320 318 320 321 320 318 318 320 322 323 323 321 321 319 318 319 318 317 317 316 313 313 315 315 315 315 315 315 314 314 317 315 308 308 315 318 317 313
309 307 308 308 309 310 310 310 310 310 310 310 309 309 309 308 308 308 308 308 309 309 309 310 310 308 310 311 315 319 319 317 314 314 315 315 315 316 317 317 315 312 311 312 314 313 315 316 316 318 320 319 319 319 318 316 318 321 321 323 321 320 322 320 318 317 317 317 315 314 314 315 314 313 313 314 314 314 313 313 315 314 311 312 316 319 316 312
309 307 308 309 310 310 310 311 311 311 310 310 309 309 308 308 307 307 307 307 307 307 308 309 309 309 311 312 313 316 317 316 315 315 317 317 316 316 316 315 313 311 311 313 313 312 314 318 318 317 319 320 317 317 318 317 320 322 321 322 321 319 319 318 317 315 316 317 314 313 316 315 313 313 313 314 314 313 313 314 314 314 316 315 313 314 313 312
311 309 308 310 310 311 311 312 312 311 310 310 309 309 309 308 308 308 307 307 307 306 306 307 308 311 312 311 312 314 315 316 316 316 318 318 317 315 314 314 312 311 311 312 312 310 313 316 316 316 317 318 316 316 318 318 319 320 320 320 319 316 316 315 314 314 314 316 316 314 316 316 313 312 314 315 315 314 314 316 315 314 315 314 311 311 310 310
313 310 310 311 312 312 312 312 312 311 311 310 310 310 309 309 309 309 308 308 307 307 306 307 307 309 311 312 312 313 314 316 315 315 316 317 316 315 314 313 312 311 311 311 310 310 311 312 312 314 316 316 316 315 316 316 315 315 315 317 317 314 315 314 313 314 313 315 316 314 314 315 313 312 314 314 314 314 315 316 315 314 315 313 311 310 309 309
314 313 313 314 314 314 313 312 311 311 311 311 311 311 310 310 310 310 310 309 309 308 307 307 308 309 311 313 313 313 313 313 314 314 315 315 315 314 313 312 311 311 311 310 310 311 310 312 312 315 317 315 315 316 315 314 313 313 314 315 316 315 314 314 313 315 314 314 316 314 313 315 314 314 315 313 313 313 313 315 314 313 313 312 311 309 309 307
315 315 315 315 315 314 313 312 311 311 311 311 311 311 311 311 311 310 310 310 310 309 308 307 308 309 311 313 313 312 312 312 313 313 313 314 314 313 312 311 311 311 312 310 311 312 312 312 313 315 316 315 317 315 312 314 314 314 314 314 314 314 316 315 315 316 314 314 316 313 312 315 315 314 313 313 313 313 314 314 314 313 313 312 311 310 309 308
315 315 315 315 315 314 313 311 311 311 310 310 310 310 310 310 310 310 310 310 310 309 309 308 309 310 311 314 312 311 313 312 312 313 313 314 313 313 312 311 311 312 313 312 312 314 314 313 313 313 313 314 317 313 313 319 319 315 313 314 316 315 316 314 314 314 312 313 315 313 312 313 313 313 313 314 314 314 315 315 313 313 313 312 312 311 311 309
315 315 315 315 314 313 312 312 312 310 309 309 309 308 309 309 309 309 309 309 310 310 310 309 310 311 313 315 312 312 313 313 313 313 313 314 313 312 312 312 312 312 313 312 312 312 313 313 312 314 315 313 312 313 318 323 323 320 315 315 318 316 315 314 313 313 313 313 312 312 315 313 313 314 313 314 315 315 316 316 314 314 313 312 312 311 311 310
315 315 315 315 314 313 315 315 312 310 311 310 308 308 308 308 308 308 309 309 310 310 309 310 312 312 313 314 312 313 313 314 315 314 314 314 313 313 312 312 312 312 312 311 311 312 312 312 312 314 315 313 314 318 320 320 324 323 315 315 319 316 314 315 314 315 314 313 311 312 315 315 314 315 315 315 314 315 315 316 315 313 313 312 311 310 309 309
315 315 315 315 315 315 317 316 312 311 315 314 310 308 308 309 310 309 311 310 311 312 310 313 314 312 312 311 311 314 313 313 314 315 315 314 313 313 312 312 310 310 311 310 311 311 310 310 310 313 316 315 317 320 319 318 320 319 315 316 320 316 313 314 315 316 314 313 313 312 312 312 313 315 315 315 314 314 314 315 314 312 311 310 310 309 309 309
315 315 315 315 316 316 317 317 313 313 317 315 310 309 310 312 312 312 312 312 312 312 312 314 313 312 314 313 312 314 313 312 313 313 314 313 312 312 313 312 309 309 310 310 311 310 312 314 313 315 316 314 315 317 318 318 316 315 315 317 318 316 314 313 313 314 315 313 313 312 312 311 312 312 312 312 312 312 312 313 312 311 310 310 309 309 310 310
314 315 315 316 317 316 317 317 315 315 316 314 309 310 312 314 314 313 312 313 315 315 315 315 313 314 317 315 313 313 313 313 314 313 312 313 312 312 312 311 310 312 312 313 313 312 315 318 317 315 315 314 313 314 315 315 314 313 314 314 315 314 313 313 312 312 313 312 311 311 311 311 310 311 311 311 311 311 311 311 310 310 310 310 309 310 310 310
315 315 315 316 317 317 317 317 317 317 315 311 309 310 314 316 316 315 315 315 316 316 318 317 316 317 316 314 314 314 314 314 314 314 311 312 313 312 312 311 314 315 314 318 318 313 313 316 317 316 315 314 313 313 313 313 312 312 312 313 313 312 311 311 311 311 311 310 311 312 311 310 310 310 310 310 311 311 311 311 311 311 311 310 311 311 310 310
315 315 315 316 317 317 317 317 317 318 314 310 309 310 312 313 312 313 314 316 313 310 315 316 312 315 315 312 313 313 315 314 314 313 311 312 312 314 314 313 315 315 315 320 318 312 311 314 317 316 314 313 312 312 311 311 311 312 313 312 312 312 311 311 311 311 310 310 310 311 311 311 310 310 310 311 311 311 311 311 312 312 311 312 312 311 311 311
315 315 315 315 317 317 317 318 318 318 316 312 310 309 308 307 308 309 307 312 314 306 309 312 308 310 312 310 311 312 314 315 314 314 312 311 312 314 315 314 316 317 316 317 315 314 314 314 314 313 313 313 312 311 311 312 312 313 313 313 313 312 311 311 311 312 310 311 314 314 312 311 311 311 311 311 311 311 311 311 312 312 312 312 312 312 311 311
317 315 315 315 316 316 317 318 318 318 317 313 310 307 306 306 307 307 306 312 317 312 312 313 310 310 310 308 310 311 312 313 313 315 313 311 313 314 314 315 316 316 316 316 315 315 317 318 315 312 312 312 312 312 313 312 312 313 314 313 313 312 312 313 313 314 312 311 315 314 311 310 310 310 310 311 311 310 311 311 312 312 312 312 312 313 312 311
320 317 316 315 315 316 317 318 318 318 317 313 311 308 306 307 307 308 310 313 316 317 315 311 309 310 310 308 308 310 312 312 312 313 312 312 314 313 313 315 315 315 315 315 315 314 314 319 317 312 311 312 312 313 313 313 313 314 314 313 313 313 312 312 313 314 313 312 315 312 311 312 313 313 312 311 310 310 311 311 311 311 311 312 312 312 312 312
324 320 317 315 316 316 316 318 318 318 317 314 312 309 305 306 306 307 311 315 320 320 314 308 309 310 309 308 309 311 312 312 312 311 309 311 313 311 312 313 313 314 314 313 314 313 312 316 316 314 314 313 313 313 314 316 313 312 314 314 313 312 312 312 313 313 314 316 316 313 313 315 315 315 316 316 313 311 310 310 310 310 310 311 311 311 311 311
326 324 320 317 316 316 317 319 318 318 318 315 312 310 306 305 306 306 311 320 325 324 315 310 311 310 309 309 309 311 314 313 309 308 309 309 310 310 311 311 310 312 314 314 313 311 313 315 314 314 317 316 314 313 316 316 313 313 317 319 315 312 313 314 313 313 317 320 315 314 316 316 315 316 318 319 316 315 313 312 311 310 310 311 311 312 311 312
326 326 323 320 317 316 318 319 318 318 319 317 314 310 307 306 304 304 312 324 327 323 318 313 311 311 310 309 308 310 317 314 308 308 309 309 309 310 311 312 310 310 311 313 313 313 314 313 313 312 313 315 316 314 315 313 313 314 316 321 320 316 315 315 313 314 318 318 315 316 316 316 315 315 317 318 316 316 314 313 312 310 311 311 312 312 312 312
326 325 325 323 319 317 318 318 318 318 319 318 314 308 306 306 305 307 316 329 329 320 317 314 309 310 311 308 307 310 311 310 310 309 306 306 309 310 312 314 312 312 311 312 313 313 313 312 315 315 312 315 316 313 316 314 313 316 316 317 318 316 316 316 316 317 317 316 316 316 315 318 318 315 315 315 314 316 314 313 312 312 312 312 312 312 312 312
325 325 324 324 321 318 317 317 318 317 318 317 313 309 307 305 305 311 320 327 327 318 314 313 309 310 312 309 310 311 308 308 310 309 306 307 308 309 312 313 312 312 312 312 312 311 312 312 315 317 314 315 313 313 318 316 313 317 316 316 320 322 321 319 318 319 319 319 318 317 316 318 319 316 317 314 314 318 316 312 311 311 312 312 311 312 312 312
325 324 324 322 320 318 317 317 318 318 318 317 313 309 309 309 309 316 326 325 323 319 313 311 311 310 312 312 312 311 310 310 310 309 310 309 309 309 309 309 310 314 314 313 312 311 310 310 311 314 313 313 312 312 314 315 314 314 314 317 324 325 323 323 323 320 319 319 318 320 317 316 318 318 319 318 319 321 317 315 315 313 314 313 311 312 312 311
323 324 324 321 319 319 319 319 320 319 319 317 314 311 314 319 319 325 330 323 320 321 313 311 313 312 313 314 315 313 311 312 310 310 311 309 310 312 309 309 311 317 319 315 313 312 309 308 312 315 314 313 312 311 313 313 313 312 315 318 321 322 323 326 325 319 317 319 320 321 316 315 318 317 316 318 318 318 317 317 318 318 317 316 314 312 311 311
323 324 323 321 320 320 320 320 320 320 319 317 315 318 324 326 323 326 329 323 325 324 314 313 314 314 316 313 316 317 312 313 310 310 314 313 314 315 313 316 316 317 321 320 318 317 314 313 313 312 313 313 312 314 316 314 312 312 316 317 316 319 320 322 323 319 319 321 319 316 314 314 315 314 314 316 315 314 314 314 315 315 316 317 316 313 311 311
322 323 322 321 320 320 320 320 320 320 319 316 317 323 326 326 327 327 326 327 328 320 316 319 315 314 314 313 320 320 311 313 312 309 313 313 312 316 316 317 316 315 317 318 318 319 318 318 313 309 312 314 313 314 316 317 316 314 317 318 317 319 317 318 322 320 319 320 316 312 314 315 315 316 318 315 312 314 314 315 315 314 314 314 313 311 310 311
321 322 322 321 320 321 321 320 320 320 318 318 321 324 324 326 328 326 325 327 326 320 319 322 319 315 314 316 324 321 313 317 315 309 312 311 311 317 318 313 311 313 314 313 316 318 317 319 317 314 315 314 312 312 315 322 321 314 316 321 318 320 321 319 321 321 319 319 315 310 315 320 317 317 320 316 315 317 317 315 313 312 312 312 312 312 312 311
319 321 321 320 319 320 320 320 320 319 318 318 321 323 325 328 329 327 327 326 324 324 322 321 321 321 320 320 322 319 314 317 315 311 313 314 314 320 322 317 311 312 314 314 317 318 315 319 321 315 313 313 314 313 313 318 320 315 316 320 316 317 322 320 319 320 318 317 315 312 317 322 316 313 316 315 314 315 314 314 314 314 314 313 315 318 317 314
318 320 320 319 318 319 319 320 319 318 318 319 321 323 324 327 329 330 328 323 321 325 325 323 324 325 326 325 322 317 313 314 315 314 314 315 316 318 321 320 314 310 311 315 318 318 316 319 319 314 312 314 314 313 311 314 318 316 315 317 315 316 319 318 318 319 316 315 316 316 318 317 314 315 316 313 313 313 315 318 317 316 316 315 317 320 318 316
317 318 319 318 318 320 319 319 318 317 317 319 322 324 323 324 327 328 326 321 320 325 327 326 326 327 328 327 324 319 317 318 317 316 319 319 318 318 318 319 316 309 309 315 319 318 317 318 316 314 314 314 312 311 312 314 315 315 316 314 313 316 318 317 318 319 317 317 317 316 317 315 314 320 318 314 315 316 316 320 317 314 316 317 320 320 317 317
313 316 319 319 319 320 320 319 316 315 316 319 322 324 323 322 322 322 323 320 320 323 326 327 326 328 328 328 328 325 323 324 320 319 324 324 321 320 319 318 316 309 308 314 318 319 318 316 316 315 314 314 314 313 314 313 311 312 314 313 312 316 317 317 318 319 317 317 318 317 316 315 314 317 316 313 315 315 315 319 319 315 316 319 322 322 320 321
311 316 319 319 318 319 320 318 314 314 316 319 322 323 323 322 320 321 322 320 320 322 324 325 325 326 327 328 328 327 326 325 323 321 324 325 323 321 319 317 315 311 310 312 315 318 316 314 317 318 315 314 315 314 315 315 312 310 311 313 313 314 314 315 319 320 317 317 319 318 317 316 315 315 314 313 315 317 318 319 320 320 320 320 320 322 323 324
312 318 319 317 318 319 318 315 314 315 318 320 321 321 322 321 321 322 321 318 319 321 323 325 325 323 325 326 325 325 326 324 324 324 324 326 325 322 320 319 315 314 313 313 317 318 315 316 317 318 318 315 315 315 316 317 317 314 313 313 313 313 314 315 315 316 316 315 317 319 318 318 317 315 315 313 313 317 319 318 320 326 327 323 320 321 323 324
314 317 318 316 317 318 315 314 315 317 319 320 320 319 319 319 320 321 319 317 317 319 320 323 325 323 321 323 323 323 324 324 324 324 324 325 324 322 324 322 317 316 315 316 319 318 316 318 318 318 318 316 315 317 319 320 322 320 317 315 314 313 315 315 314 315 316 315 316 317 317 319 319 316 314 313 313 313 316 317 319 324 323 319 319 322 322 322
313 316 316 315 316 315 313 315 316 316 318 319 319 319 318 318 319 319 319 317 317 317 317 320 323 322 320 320 321 321 323 325 324 322 322 322 321 321 323 320 317 318 318 319 322 320 319 320 318 316 317 316 316 317 317 317 317 316 315 315 315 313 313 315 316 316 316 315 315 316 316 319 320 318 314 314 314 313 314 314 314 315 314 314 319 324 324 323
313 314 313 313 314 313 314 317 317 316 317 317 317 318 318 318 319 318 317 317 317 317 317 318 319 319 319 319 319 320 321 322 322 322 321 321 319 319 319 319 318 316 318 321 322 319 318 319 317 317 318 318 318 316 315 314 313 314 314 313 313 313 312 314 314 314 315 315 315 317 317 319 321 320 316 314 314 313 313 312 311 311 313 316 321 324 322 322
310 311 312 312 313 312 314 318 318 317 317 316 316 317 316 316 317 317 316 316 317 317 317 317 317 317 318 318 318 319 320 320 319 320 321 320 320 320 318 318 318 316 317 321 321 319 317 317 318 318 319 319 318 317 316 315 314 314 314 313 313 312 312 314 313 313 315 315 315 317 317 318 320 320 316 314 313 312 312 311 312 313 314 315 318 321 321 321
306 309 311 312 311 312 314 316 316 317 317 316 317 317 316 316 316 316 315 315 316 317 317 317 317 317 317 318 318 318 318 319 318 319 320 320 321 321 318 317 317 315 316 317 317 317 316 316 318 318 318 319 318 317 317 317 317 316 315 315 314 313 313 313 314 315 315 315 315 317 317 316 317 317 315 313 312 312 312 311 312 314 315 313 314 317 317 314
305 307 308 310 311 311 313 314 314 315 316 316 317 316 316 317 316 315 315 315 315 314 315 316 316 315 316 316 317 317 317 317 317 317 318 319 321 319 314 313 315 315 315 316 313 312 313 315 316 316 317 317 316 316 316 316 317 317 316 316 315 315 313 312 313 315 315 316 316 316 316 316 316 316 314 313 313 313 312 311 311 311 311 310 309 309 307 304
303 304 306 310 311 311 312 313 314 314 314 314 315 315 315 317 316 314 314 314 314 313 313 314 313 314 315 315 316 316 316 316 315 315 315 316 318 316 310 311 313 314 315 314 312 311 312 314 315 314 315 315 314 315 315 315 316 315 316 316 316 316 315 313 313 313 314 316 316 316 316 316 316 316 314 313 313 312 311 310 308 306 304 304 302 301 301 300
301 302 304 306 307 308 310 311 311 313 314 313 313 312 313 314 314 314 313 312 312 312 313 313 313 313 314 314 314 314 314 315 315 314 314 313 313 311 310 311 310 309 310 309 308 311 312 312 314 314 314 314 313 313 313 314 314 314 315 315 315 316 316 315 315 314 314 315 315 315 315 315 315 314 313 311 308 308 307 304 301 299 298 298 298 298 298 298
299 300 301 302 303 304 305 304 306 309 312 313 312 312 312 312 311 311 312 312 312 312 312 312 313 313 312 312 312 313 313 314 314 313 311 308 307 307 308 310 308 306 305 304 305 310 310 310 312 312 312 312 312 312 312 313 313 313 313 313 314 314 315 315 315 315 315 315 315 314 313 313 312 309 306 303 300 300 301 299 297 297 296 296 296 296 296 296
298 299 299 300 300 300 301 301 302 305 308 310 312 312 311 311 311 310 311 312 312 311 312 311 310 309 308 308 309 310 310 310 310 310 306 303 304 305 305 306 306 304 302 302 305 309 310 310 310 310 310 310 310 311 312 312 312 312 312 313 313 313 314 314 314 314 314 314 314 314 314 313 307 302 299 298 295 296 298 298 296 295 296 296 295 295 295 295
296 296 297 298 298 299 301 301 301 303 305 306 309 310 311 311 311 310 310 310 310 311 310 307 305 304 304 304 305 306 306 305 304 304 303 301 302 303 302 302 302 301 300 302 305 306 307 307 307 307 308 308 309 309 310 311 312 311 312 311 311 312 312 312 313 314 314 314 313 314 313 306 299 297 297 296 294 293 295 297 295 294 295 296 295 295 295 294
295 295 296 297 297 298 299 299 300 301 303 305 306 307 307 307 306 307 309 307 305 304 304 301 300 301 302 303 303 303 302 301 301 301 301 301 300 300 300 300 300 300 301 301 301 303 304 304 305 306 306 307 306 307 307 308 307 308 307 308 309 310 310 310 311 310 309 310 310 307 303 298 295 295 295 295 294 293 294 295 294 293 294 295 295 295 294 294
Wind_Speed
13 13 13 13 13 13 13 13 12 12 11 11 11 11 11 11 11 11 11 12 12 13 13 13 14 15 16 14 11 9 10 9 9 8 10 12 12 10 10 7 6 11 12 9 9 9 6 3 5 5 3 2 1 0 0 0 2 2 3 2 3 3 4 6 7 6 3 4 5 5 1 5 6 5 2 2 2 4 4 4 5 6 5 3 3 3 4 18
14 14 14 14 14 14 14 14 14 13 13 13 12 12 12 11 12 12 12 12 12 13 13 13 14 15 15 15 13 12 12 10 8 9 11 12 10 10 11 10 9 12 13 11 13 13 8 4 6 6 4 1 1 1 0 1 2 2 3 2 4 6 6 6 7 5 4 4 5 6 3 5 7 4 1 3 7 6 6 7 4 7 10 5 1 3 12 21
14 14 14 14 14 14 14 14 14 14 14 14 13 13 13 12 12 12 13 13 13 13 13 13 14 15 15 15 13 12 13 8 5 7 4 1 3 8 12 13 11 13 14 11 12 13 9 8 11 7 4 0 1 0 1 1 2 3 3 3 6 7 6 6 7 7 7 4 5 8 2 3 6 4 1 3 8 9 10 8 4 7 12 11 4 7 14 20
14 14 14 14 14 14 14 14 14 14 15 14 14 13 13 13 13 13 13 13 13 13 13 14 14 15 15 14 11 11 10 5 3 5 3 4 3 2 11 15 12 13 15 10 8 11 7 8 11 6 4 1 3 1 1 3 3 2 4 6 7 5 4 8 9 9 8 3 4 5 3 4 6 3 3 3 6 12 12 8 10 12 13 12 6 8 14 16
15 15 15 15 14 14 14 14 14 14 14 14 14 14 13 13 12 13 13 13 13 13 13 14 14 15 15 13 10 10 8 4 2 5 3 2 5 2 8 14 13 14 16 11 7 10 8 8 8 4 3 2 1 2 3 6 3 2 6 8 7 4 4 9 6 7 6 3 3 3 5 6 3 2 5 6 5 13 12 6 12 14 12 12 8 10 12 12
16 16 16 16 15 15 14 14 14 14 14 14 14 14 13 13 12 12 12 13 13 12 13 13 13 13 14 12 8 7 3 1 4 2 4 6 5 2 7 13 15 14 15 12 8 10 7 6 5 2 2 1 3 5 5 4 4 3 6 6 7 7 7 8 4 5 3 1 5 4 5 3 4 7 5 9 11 18 16 5 9 11 11 9 7 10 11 12
17 17 17 17 17 16 15 15 15 14 14 14 14 13 13 13 12 12 12 13 13 12 13 12 13 13 13 10 6 4 3 5 11 8 9 8 5 4 7 12 15 15 16 14 9 8 5 6 5 4 4 1 4 7 5 2 3 5 6 5 7 8 10 10 7 6 3 6 9 3 5 5 8 9 1 7 13 21 20 5 7 9 7 6 6 10 13 15
17 17 17 17 17 16 16 16 16 15 14 14 14 13 13 13 12 12 13 13 13 13 13 12 12 12 11 6 2 3 0 9 15 12 10 7 6 5 8 12 15 16 17 17 14 9 6 7 7 4 3 4 4 5 4 2 1 6 8 5 4 5 9 11 8 7 6 8 6 2 8 12 11 5 4 13 17 20 17 8 8 8 6 7 8 11 13 13
17 17 16 16 17 16 17 17 17 16 15 14 14 13 13 12 12 12 12 13 14 13 12 12 11 10 8 3 4 3 5 7 9 9 8 7 7 6 9 11 15 17 16 16 15 11 7 7 8 6 4 4 4 4 3 3 4 7 8 6 4 6 8 9 8 7 6 6 4 3 12 16 7 1 9 18 20 19 13 9 9 7 8 9 9 11 12 13
15 16 15 16 16 17 17 17 17 16 15 14 14 13 13 12 12 12 12 13 14 14 13 11 10 8 6 2 2 4 7 6 7 8 7 8 8 8 11 12 14 18 15 10 13 13 7 7 7 5 4 2 4 4 3 5 5 5 5 6 7 9 9 7 7 6 4 5 7 7 14 17 3 2 10 17 14 10 8 9 8 5 10 10 9 10 10 12
13 14 14 15 16 16 17 17 16 15 15 14 14 14 13 13 13 13 13 14 14 13 13 11 9 6 5 2 3 7 8 7 10 9 8 10 10 11 12 13 14 18 15 8 11 15 9 6 6 5 2 2 3 2 3 5 3 2 2 8 10 7 10 10 8 5 4 5 8 11 11 14 3 3 14 20 12 3 6 12 9 6 10 10 9 9 8 10
13 14 14 15 16 17 17 16 14 13 14 14 14 14 14 14 14 14 14 15 14 14 13 11 7 5 3 1 7 14 15 13 13 12 13 13 12 12 12 14 14 15 15 8 7 12 11 6 5 4 4 2 1 1 4 3 1 2 2 6 12 7 11 15 7 5 7 4 6 10 4 9 7 11 18 21 13 4 6 12 13 10 10 9 9 8 8 11
14 14 15 16 16 17 17 15 13 13 13 14 15 15 15 15 15 15 16 15 15 15 13 9 7 5 3 2 8 15 19 20 19 18 18 16 14 13 13 14 13 12 13 10 5 5 7 7 6 4 3 2 3 2 1 3 3 4 2 2 9 8 10 11 2 3 4 5 6 8 2 7 12 18 18 14 10 7 8 11 13 12 9 8 8 8 9 11
13 14 15 15 15 16 15 14 14 15 15 16 16 16 16 15 15 16 16 17 16 15 11 7 4 5 4 6 9 9 14 18 20 21 20 19 15 12 11 12 11 11 10 8 5 1 2 4 5 2 1 3 3 4 3 5 3 4 3 1 3 3 9 8 4 2 3 4 8 6 5 9 13 20 17 9 6 7 9 13 12 11 11 9 8 8 10 11
12 13 13 12 13 14 14 15 16 16 17 17 17 17 17 16 16 16 17 17 16 13 8 3 6 7 2 7 10 9 11 13 17 22 21 19 16 10 9 11 10 8 7 6 4 3 4 4 4 2 3 1 1 4 4 4 3 2 2 4 2 2 8 13 7 5 7 5 5 6 6 8 12 18 16 6 5 8 9 13 12 11 12 11 9 8 10 11
12 11 10 10 11 12 14 15 16 15 17 18 18 18 17 17 16 16 17 15 13 9 4 3 9 7 1 5 6 7 9 11 14 17 17 18 17 11 7 8 7 4 4 4 4 4 5 4 2 2 1 3 2 1 3 4 5 2 1 5 5 4 5 9 11 6 7 4 2 7 7 6 8 13 13 6 5 7 8 12 13 12 12 11 10 8 10 11
11 10 9 9 9 11 13 15 14 15 19 19 18 18 16 15 13 12 10 6 2 5 5 3 7 4 2 5 5 6 8 11 13 12 12 15 16 12 7 5 4 6 6 4 5 4 2 2 1 0 1 1 2 4 3 3 6 3 1 4 5 7 6 4 9 8 2 5 6 8 9 10 11 11 12 9 6 6 7 12 13 12 11 10 9 9 11 11
9 9 9 8 9 11 13 15 14 15 20 19 18 17 11 7 4 3 2 8 10 9 5 2 4 2 4 6 6 7 5 7 8 7 10 11 12 12 7 4 5 8 7 4 2 3 1 1 1 1 2 1 2 4 3 7 8 7 5 5 4 5 7 7 9 7 5 6 7 4 9 15 15 12 13 14 12 9 9 12 13 11 12 12 10 12 14 13
8 8 8 8 9 11 13 16 15 16 20 19 16 11 3 3 4 5 7 9 8 4 1 2 5 3 4 6 7 7 4 3 4 4 6 7 10 10 5 5 6 7 5 1 2 3 2 2 3 2 3 6 7 7 10 14 14 11 7 6 6 6 8 9 11 8 6 11 9 8 15 17 14 13 14 15 14 14 14 12 12 12 13 13 12 14 16 15
9 8 8 9 10 11 14 17 16 17 19 18 16 7 1 3 3 2 1 1 4 4 2 5 8 4 4 5 3 4 4 4 3 2 5 7 10 9 4 4 5 4 3 4 3 2 3 3 4 6 9 12 12 13 16 16 10 7 4 6 8 8 10 10 12 12 5 6 10 12 18 18 14 14 14 14 12 14 18 17 15 14 14 14 15 17 18 17
11 10 9 9 10 11 14 17 17 17 16 16 15 5 2 1 1 3 4 5 10 10 6 9 9 7 12 9 2 2 1 2 2 2 5 7 9 8 1 2 4 1 2 4 2 0 2 6 8 11 14 13 12 12 12 9 6 6 6 8 8 8 13 12 12 15 5 3 10 10 17 20 16 14 12 12 12 14 18 20 19 18 15 14 16 19 19 16
14 11 10 10 10 11 13 16 16 16 15 13 13 6 3 1 1 1 0 4 10 8 8 10 7 8 17 15 6 1 3 3 3 2 6 7 5 4 2 3 5 3 1 3 1 2 3 5 10 13 12 8 7 5 4 6 6 8 5 6 8 6 10 11 12 15 5 3 8 8 15 18 14 15 12 12 14 15 17 19 20 19 16 15 17 18 18 17
15 14 12 11 11 11 12 15 14 14 15 11 10 5 1 0 1 1 2 2 7 5 5 7 5 6 12 12 6 2 1 5 4 4 9 10 2 3 3 4 5 2 3 6 7 6 5 6 11 14 10 7 8 4 3 5 5 7 6 6 8 4 6 9 7 8 4 4 6 9 15 15 11 15 12 14 17 14 15 19 19 18 17 20 20 17 16 18
14 15 14 13 12 11 11 14 11 12 14 8 7 5 0 0 2 1 1 1 4 6 5 6 5 5 6 5 2 6 4 5 3 4 10 13 4 3 4 5 5 3 5 10 11 11 9 6 6 8 8 8 9 8 5 5 7 9 10 8 10 10 11 12 5 6 6 4 6 9 15 12 8 12 10 9 12 11 13 16 16 17 20 20 17 15 16 17
15 16 15 14 13 11 11 12 7 10 12 5 5 7 2 1 2 2 1 1 3 6 4 3 3 3 4 2 3 6 4 3 2 2 7 10 6 3 2 3 4 4 7 8 8 10 10 5 4 4 6 8 8 8 6 7 9 11 8 11 16 16 13 13 8 7 6 5 5 4 9 10 4 9 8 6 6 9 9 12 16 19 19 16 13 14 15 15
16 16 15 15 14 12 10 7 4 9 9 3 5 9 3 2 2 2 2 3 4 5 2 2 2 1 3 2 0 3 4 1 3 1 2 3 3 3 1 1 1 3 6 5 4 4 6 5 5 7 8 7 6 6 7 10 8 10 6 12 16 14 10 11 8 4 2 4 4 2 1 10 4 6 7 7 7 9 9 11 17 17 14 12 12 13 13 12
18 18 17 15 15 11 6 3 4 7 4 2 7 8 3 2 3 3 1 3 5 2 3 1 1 2 2 1 1 3 3 3 1 2 2 1 1 1 1 3 2 2 4 2 3 3 4 3 4 5 4 5 5 7 8 11 7 7 5 9 10 9 8 8 5 4 4 3 4 1 4 7 11 4 8 10 9 10 12 14 15 13 12 14 15 14 12 13
21 21 19 16 15 12 9 6 6 4 2 3 7 7 3 2 2 1 2 3 5 1 3 1 1 2 0 1 2 3 2 1 2 1 2 2 0 2 1 6 6 4 3 4 5 4 4 3 5 5 3 5 7 7 6 11 7 6 1 4 6 5 5 4 5 5 1 4 4 4 5 2 12 7 4 5 7 9 13 14 13 12 13 15 14 13 13 13
21 22 22 19 15 13 12 11 7 4 4 4 6 6 3 2 2 3 3 3 3 1 1 0 2 1 2 2 2 2 0 1 2 2 2 2 0 3 2 5 6 4 4 5 8 6 2 3 5 7 5 6 8 5 6 12 8 3 4 4 4 3 2 4 4 3 2 4 6 5 6 3 11 8 2 1 3 7 10 10 10 11 12 13 12 13 14 12
21 20 23 20 13 12 12 12 12 8 5 4 3 4 4 3 1 3 2 5 1 0 1 1 1 1 2 3 1 2 1 2 0 1 3 1 2 4 1 3 4 2 3 2 7 9 4 1 3 5 5 6 5 1 4 9 6 2 2 3 5 4 4 3 0 3 2 7 6 10 11 6 7 6 4 3 4 6 6 5 7 9 10 12 11 12 13 11
20 20 22 20 17 15 9 7 14 13 8 6 2 3 4 3 2 3 6 3 1 1 1 1 1 1 2 4 2 2 1 2 1 2 1 1 2 4 1 1 3 2 3 4 6 7 4 2 2 4 4 4 4 1 1 1 1 1 1 3 4 5 4 5 4 3 2 9 5 11 13 8 7 7 3 5 6 5 6 5 7 9 10 11 11 12 11 9
19 19 21 22 22 19 11 5 8 10 10 6 0 3 3 2 1 5 5 3 2 2 1 1 1 1 1 1 1 2 2 2 1 3 3 2 2 2 3 4 3 1 4 3 3 6 3 5 4 3 2 5 5 2 3 4 2 3 2 1 2 4 4 3 3 1 4 9 5 8 8 5 11 10 3 7 11 9 8 7 8 10 11 12 11 11 10 10
16 17 19 22 24 22 17 11 6 7 9 5 2 3 4 2 4 5 3 2 2 1 2 2 1 2 2 2 2 3 2 2 2 2 2 2 2 3 4 5 5 2 4 3 2 4 4 4 1 1 3 4 7 5 3 2 3 6 5 4 3 2 3 4 4 2 5 7 3 3 4 4 10 8 6 12 13 10 7 8 9 10 11 11 9 9 10 12
14 17 18 21 24 25 23 18 12 10 9 6 3 3 3 5 5 2 3 5 3 1 2 2 3 3 1 1 4 3 1 3 2 3 1 2 1 3 4 5 5 3 2 1 1 2 3 6 3 5 3 4 9 9 7 4 4 6 6 5 5 5 4 5 4 5 8 6 3 1 4 5 6 4 6 10 7 7 5 6 6 7 8 8 8 8 10 11
13 16 17 18 23 27 24 22 18 15 11 7 4 2 4 7 5 1 4 5 2 2 1 1 3 1 2 3 4 2 3 4 2 4 2 2 3 4 3 4 6 5 3 2 2 3 4 8 6 3 0 7 7 6 4 5 1 3 3 5 3 5 5 5 7 9 8 4 3 3 4 5 5 6 8 7 7 8 8 7 5 6 7 6 6 7 7 9
11 12 13 14 20 25 25 24 20 17 14 7 3 4 7 7 4 3 4 2 2 2 1 2 3 2 4 2 2 3 2 2 2 2 2 3 3 4 4 4 6 9 7 5 3 2 4 6 2 2 2 4 5 3 2 3 1 0 3 3 4 3 6 5 8 7 5 5 6 6 8 6 4 9 9 3 4 7 7 6 5 7 6 4 5 6 6 7
9 8 8 10 16 20 23 24 22 19 12 5 4 7 6 5 4 4 3 1 1 3 3 2 2 3 3 2 3 3 2 1 3 2 2 3 3 4 5 4 4 12 12 5 2 3 5 5 5 4 6 4 2 1 4 3 3 3 3 4 2 2 3 3 3 3 4 8 7 8 13 11 5 8 6 3 4 8 8 6 5 7 5 2 5 6 6 7
9 7 7 11 17 17 19 22 22 16 5 2 8 10 5 3 4 4 4 3 1 2 3 4 4 2 3 4 4 3 3 3 3 3 2 3 4 5 6 4 4 9 10 3 1 2 1 4 7 6 5 3 2 2 5 5 3 4 4 2 1 2 3 2 2 3 6 9 6 7 13 11 7 10 10 9 10 10 11 7 5 8 5 2 5 7 7 7
7 4 4 9 15 17 19 21 19 9 1 3 9 9 4 3 3 3 4 3 2 2 3 5 4 2 3 5 4 2 4 5 4 3 3 3 5 4 5 3 2 5 7 5 4 2 0 2 5 5 3 2 3 1 5 6 2 1 2 2 0 3 4 3 3 2 5 9 8 8 10 8 7 9 12 15 11 8 9 7 6 9 6 3 5 6 7 7
3 3 2 5 12 17 19 19 13 4 3 4 7 6 2 2 3 3 4 4 2 2 3 4 4 4 5 5 5 4 4 5 4 4 4 3 5 4 3 3 3 4 3 2 3 1 1 2 4 5 5 3 1 4 6 7 4 2 3 4 4 3 2 3 3 2 4 8 8 9 9 7 4 5 13 18 10 7 8 7 7 8 6 5 6 7 7 7
2 3 3 3 10 18 19 12 5 4 4 4 6 7 3 1 2 3 3 3 3 2 2 3 5 5 5 5 5 3 2 3 5 5 4 4 5 5 4 4 5 5 3 3 1 2 1 3 4 4 4 6 9 8 8 8 7 5 5 5 5 5 3 6 7 5 5 7 8 9 9 7 3 5 15 17 8 6 7 7 8 8 6 7 8 7 7 7
3 4 1 1 13 23 16 4 4 4 4 4 5 5 3 2 2 3 3 2 3 2 1 2 5 5 4 5 6 4 3 3 5 5 5 6 9 8 5 3 6 5 3 2 4 4 3 2 2 5 7 9 14 11 7 8 5 3 3 4 5 5 4 6 9 8 7 8 8 9 10 6 5 7 14 15 12 9 7 8 9 8 7 8 9 8 7 7
3 3 2 1 17 22 9 3 5 4 5 3 2 2 2 2 3 4 4 3 3 3 2 2 4 5 6 6 6 5 4 5 6 8 7 6 8 10 9 6 4 3 1 3 3 2 2 3 3 6 5 6 11 12 9 6 4 3 5 6 8 8 9 11 10 7 7 8 7 9 10 5 4 6 12 14 16 14 9 8 8 7 7 7 8 8 7 8
2 2 2 4 18 16 4 5 7 6 6 4 4 5 3 2 4 6 5 4 3 3 3 3 4 5 6 5 6 6 5 5 7 9 7 5 6 8 10 10 7 5 4 4 3 3 3 2 3 5 4 4 6 8 9 5 4 4 7 9 11 13 15 13 9 7 8 10 12 12 11 7 3 6 9 12 16 15 14 11 6 5 7 7 7 8 7 7
2 2 2 4 14 10 3 5 5 5 7 7 8 8 6 4 5 6 6 4 4 4 3 3 2 3 4 4 5 6 7 7 7 6 4 4 4 4 5 6 6 5 3 2 2 1 2 3 3 4 6 6 7 6 6 4 2 2 4 8 11 13 15 13 9 9 10 12 15 14 12 9 6 7 10 14 17 18 20 18 8 6 7 7 5 6 7 8
1 2 2 1 5 5 3 3 3 3 5 7 8 7 10 11 5 3 5 5 6 6 3 2 2 1 3 4 6 7 8 8 7 5 4 4 4 2 4 6 3 3 5 6 4 2 1 3 5 9 10 10 12 11 9 8 8 8 8 9 10 10 11 10 8 10 12 12 13 13 13 14 11 10 13 15 18 20 22 22 16 8 7 7 7 8 11 12
0 2 1 1 2 4 5 5 5 5 3 4 4 4 10 13 8 4 5 5 5 5 4 4 6 7 6 6 8 8 8 9 8 7 8 7 4 3 5 5 3 5 5 4 3 2 2 4 8 13 15 15 17 18 16 15 15 16 17 16 15 14 13 12 12 13 12 11 12 12 13 15 13 12 16 18 18 18 16 16 16 15 14 13 13 14 16 15
1 1 1 1 2 3 4 4 5 6 6 6 4 4 9 11 9 6 4 2 2 4 3 4 7 12 12 10 9 6 6 9 8 8 8 5 2 5 6 3 2 4 5 3 3 1 2 4 7 12 15 15 16 18 18 17 16 16 17 18 20 20 20 19 20 19 15 14 15 14 16 19 15 12 14 12 10 11 12 12 13 15 15 16 16 16 17 16
1 1 3 3 2 3 3 4 4 4 8 10 7 7 12 13 13 10 3 0 2 3 6 7 6 7 8 9 7 5 5 7 5 4 2 2 2 2 4 3 1 4 6 5 4 1 3 3 4 8 11 10 12 15 15 16 16 16 17 19 21 22 24 24 24 23 21 21 21 20 22 21 12 8 8 8 10 10 11 12 14 15 15 14 15 15 14 14
1 1 2 4 2 3 3 3 4 4 4 7 7 8 11 13 15 11 4 5 6 5 6 7 4 2 1 2 4 5 5 3 2 1 2 3 2 1 1 2 3 4 5 5 3 3 4 3 4 6 7 8 10 13 13 13 14 15 16 17 18 19 21 22 20 19 20 21 22 24 23 15 7 9 8 9 10 11 12 13 14 14 12 12 13 12 12 12
1 1 1 3 3 3 1 1 2 3 3 5 6 7 8 10 9 6 3 4 5 4 3 3 2 1 1 3 4 6 3 2 2 2 1 0 2 2 1 2 4 6 6 4 3 2 3 3 6 7 6 7 10 12 13 13 13 14 15 17 19 18 17 17 17 17 17 17 19 19 14 6 7 10 9 10 13 14 12 11 11 11 12 12 12 11 11 12
0 2 1 1 3 4 2 2 2 3 3 3 4 4 5 5 3 3 3 1 4 4 5 5 3 2 1 4 4 3 3 3 3 4 3 5 6 5 5 7 8 6 6 5 3 2 4 4 4 5 6 8 11 14 12 10 12 13 12 12 14 14 13 13 13 13 11 8 7 5 2 4 7 10 11 13 14 13 11 7 8 10 11 11 11 11 11 12
Wind_Direction
352 351 351 351 350 351 350 348 347 347 347 345 344 344 342 342 340 339 337 337 338 336 338 340 341 343 345 345 337 326 316 301 285 255 235 259 266 244 238 228 201 201 201 196 186 174 158 171 183 158 135 115 18 347 181 110 107 67 91 145 249 206 204 193 193 202 193 269 274 307 314 186 270 294 303 342 289 263 263 268 274 280 266 224 269 311 152 161
349 349 348 348 346 347 345 344 344 343 343 342 342 340 339 340 337 336 333 333 333 331 333 335 337 338 343 343 334 331 323 309 291 260 257 273 269 243 228 214 204 202 195 193 196 178 156 198 185 132 89 106 308 360 96 250 144 133 128 184 235 206 215 200 194 210 210 249 270 297 294 191 238 266 22 293 274 287 276 272 292 281 271 263 260 149 160 163
344 344 344 344 343 344 341 340 340 339 340 339 339 338 337 337 334 333 331 329 328 329 328 330 333 335 341 338 334 336 323 319 305 263 259 330 259 233 214 204 200 199 199 202 206 193 185 197 172 129 71 157 272 57 70 255 189 174 144 224 243 218 236 236 215 224 229 249 296 295 291 187 240 247 115 255 280 284 260 251 237 250 256 249 205 153 167 169
338 338 337 338 339 340 339 339 337 336 336 334 335 335 334 334 334 330 327 325 324 325 323 325 329 332 339 338 338 336 325 338 302 225 149 76 32 229 206 201 196 196 202 206 210 204 191 158 151 119 86 228 304 31 186 223 205 177 163 214 236 202 239 247 221 232 249 242 254 277 333 290 259 209 195 237 299 285 261 224 213 225 239 237 200 175 178 176
335 334 334 333 332 334 335 335 334 332 331 330 331 331 332 332 331 327 325 323 319 319 318 319 323 327 336 339 341 338 346 15 270 193 166 333 356 319 203 198 198 197 200 206 200 186 170 130 119 73 88 202 293 71 234 223 154 165 214 227 231 177 232 254 223 228 240 190 224 276 300 282 268 216 212 202 229 268 266 196 206 222 228 229 194 182 184 185
333 332 331 330 329 330 330 331 330 327 326 326 327 328 329 327 326 324 321 319 317 316 313 313 315 319 327 332 334 337 3 303 267 236 275 296 321 292 191 194 198 198 201 206 185 168 165 123 115 125 140 202 197 190 241 224 151 219 249 244 238 212 233 264 245 223 198 207 263 263 275 293 303 282 223 190 216 253 263 190 195 225 227 229 175 167 186 194
329 329 327 328 330 330 330 331 327 323 322 322 323 324 323 323 323 319 317 315 312 312 311 310 309 308 318 328 325 351 82 253 279 294 291 287 288 251 191 194 197 201 203 197 178 164 153 130 161 172 141 227 214 209 234 202 174 232 256 254 244 227 234 256 261 260 266 263 261 274 311 293 262 277 235 206 231 251 263 244 211 236 229 214 165 178 195 198
326 325 325 329 334 333 333 332 327 322 319 320 319 320 319 319 318 315 313 309 307 308 307 306 305 306 316 330 345 349 343 256 279 292 291 283 271 240 200 196 198 204 204 200 192 173 152 152 187 171 147 237 198 191 210 154 207 227 235 245 250 240 243 257 266 268 265 257 255 292 292 265 241 263 296 257 254 257 266 274 249 243 231 209 198 203 203 206
326 326 331 335 336 335 335 335 329 322 320 319 316 316 316 316 315 312 309 304 303 303 302 302 301 304 311 344 80 331 267 247 282 296 292 282 267 238 208 200 201 205 206 213 204 180 171 185 206 193 192 222 174 191 198 179 244 221 224 248 258 265 265 265 268 250 238 241 207 225 272 269 251 238 273 258 254 265 278 281 262 241 238 226 218 215 206 213
324 327 336 336 334 333 337 337 330 325 325 321 317 316 314 314 314 310 306 302 301 300 300 297 294 295 292 287 95 286 264 251 284 288 282 275 260 234 217 211 207 206 205 218 210 194 190 200 201 176 177 187 174 206 167 173 214 197 216 263 254 268 279 253 250 241 216 238 195 193 260 272 283 114 265 261 245 264 296 285 272 237 244 239 227 225 213 218
320 326 335 336 334 334 341 338 327 326 326 324 322 319 316 316 313 308 306 301 300 302 299 295 294 285 267 195 178 252 266 269 278 278 274 270 255 241 232 225 218 211 206 209 214 212 219 212 161 130 186 199 184 225 220 198 191 191 253 296 278 294 297 261 247 242 205 248 200 183 251 279 316 168 249 264 254 250 295 285 282 249 248 249 237 232 220 224
323 328 333 337 338 340 343 336 326 325 325 324 321 319 317 314 310 305 302 299 299 300 297 296 291 258 239 184 220 247 263 266 268 271 271 267 253 244 236 227 226 220 214 216 233 227 228 222 152 156 226 189 185 273 243 221 75 300 36 320 293 334 310 278 270 222 187 220 185 157 252 284 265 236 243 259 265 273 281 279 280 264 250 250 245 239 230 234
326 330 332 338 341 342 341 334 329 328 326 323 319 317 313 307 305 299 296 293 292 296 296 293 279 231 196 254 246 251 259 259 260 263 263 258 250 243 231 224 226 225 222 227 256 245 224 223 188 199 223 167 253 252 164 36 33 289 30 335 294 340 305 281 39 93 174 186 165 142 248 263 254 256 253 257 264 275 275 267 271 272 264 252 244 242 241 241
323 328 334 339 342 341 340 338 337 334 331 327 322 318 309 303 297 289 288 286 286 292 291 285 253 182 167 255 267 266 257 254 254 254 252 249 240 235 230 223 221 220 223 228 238 221 179 200 171 171 252 176 250 297 344 4 11 297 316 282 299 319 280 291 63 87 260 210 159 155 246 252 260 267 263 259 245 240 256 262 263 266 269 264 248 242 247 246
323 328 334 339 342 343 344 345 342 340 337 333 328 320 311 303 292 284 280 277 281 283 277 253 181 153 111 274 271 274 257 250 252 250 249 244 230 224 227 217 215 217 218 220 215 198 163 151 136 156 266 260 305 316 328 341 355 10 287 276 307 207 270 305 310 215 237 267 136 157 239 255 260 268 272 272 216 209 236 258 262 262 264 266 262 250 250 254
325 329 333 338 343 347 349 348 346 345 343 338 331 322 313 304 291 283 277 275 280 263 226 183 171 151 55 269 276 284 255 242 250 253 246 239 230 220 206 195 198 187 184 190 167 173 165 138 117 154 232 285 248 132 38 353 318 341 225 248 268 251 270 311 303 249 213 240 180 202 229 258 258 264 276 278 212 208 232 256 261 262 264 263 267 264 259 263
325 329 331 337 341 345 349 349 346 347 346 342 335 326 318 307 293 288 281 271 257 164 137 141 167 153 278 264 289 282 248 239 247 251 239 232 226 211 181 153 149 130 118 115 137 146 140 130 149 53 31 276 161 102 58 297 276 292 223 230 244 250 259 290 294 298 225 187 208 230 236 248 255 264 285 291 256 225 235 259 262 260 267 266 265 268 266 266
326 329 327 331 336 340 346 348 344 345 345 344 339 331 324 319 320 345 129 127 110 109 89 55 134 139 270 252 257 258 250 240 237 238 228 218 206 198 178 132 117 115 98 60 137 154 37 21 103 37 344 272 154 117 176 232 240 243 231 240 252 240 247 255 264 294 318 248 219 232 251 251 259 269 282 284 278 264 246 253 263 263 266 266 266 267 265 267
320 324 323 325 333 335 342 347 344 343 344 347 346 334 330 42 60 90 114 121 110 113 142 206 164 154 250 246 251 258 264 215 203 221 200 180 180 177 149 110 98 100 104 52 250 188 137 55 78 121 231 233 211 178 202 223 230 236 230 230 245 249 247 246 254 261 281 279 264 255 261 260 263 265 267 273 276 275 266 257 260 264 265 264 263 263 263 263
309 314 317 321 328 331 341 347 344 345 348 353 355 345 66 36 28 40 49 175 216 208 182 207 203 217 267 269 251 234 245 206 199 199 162 160 157 145 105 64 70 73 140 165 209 217 146 164 169 192 214 221 216 204 215 231 243 253 243 240 244 255 262 254 262 266 247 273 268 256 268 271 266 262 260 264 269 273 273 269 262 258 259 262 260 260 262 260
301 304 310 315 322 328 339 344 343 348 353 360 7 17 130 65 344 310 315 278 257 245 252 239 219 246 260 260 235 173 261 229 212 80 146 160 140 140 172 83 112 192 212 152 171 324 156 197 209 214 219 221 222 219 225 243 269 262 246 262 260 248 262 259 261 271 252 231 263 261 273 275 269 265 260 258 259 258 264 267 268 263 257 260 262 262 263 262
297 296 301 304 314 324 333 342 344 347 353 9 26 54 146 157 194 262 295 285 283 258 248 252 235 257 257 259 269 80 14 290 301 14 153 145 123 181 228 103 152 212 165 128 243 266 223 229 229 228 232 241 249 232 222 236 240 244 242 263 264 248 272 268 251 265 258 216 271 275 270 272 271 268 254 246 249 245 251 258 263 267 264 262 260 262 266 267
289 291 295 294 308 318 326 338 341 345 353 13 33 48 154 26 154 127 101 243 290 276 238 243 220 235 255 269 271 162 248 251 274 283 174 146 113 201 151 135 176 166 154 188 214 229 235 240 233 233 234 243 260 247 223 259 244 225 224 245 260 248 265 263 245 272 278 225 271 285 277 275 267 265 253 238 245 245 249 254 258 264 263 259 257 261 269 270
282 286 288 288 300 307 319 331 331 344 350 2 20 14 359 214 179 155 40 215 280 280 243 221 203 217 241 271 210 163 199 214 223 260 178 155 140 165 162 168 168 168 204 208 218 235 246 242 224 227 222 217 240 245 228 262 265 234 217 225 253 245 240 251 268 327 319 276 280 292 293 284 231 238 248 235 243 245 247 254 260 262 257 259 264 266 267 265
273 278 281 283 290 295 310 322 323 342 342 338 3 360 352 204 180 150 43 3 291 290 272 211 195 230 198 152 160 167 169 204 232 265 182 166 151 146 192 176 160 208 219 216 233 253 259 243 177 188 217 210 222 241 211 210 253 259 220 207 238 247 247 257 284 340 338 302 302 318 305 297 195 187 234 244 240 241 242 250 253 256 258 265 272 266 261 262
265 267 271 275 280 288 304 313 317 338 342 325 341 347 334 218 217 207 76 37 290 272 284 202 182 194 173 122 243 155 125 262 277 6 126 169 159 138 173 200 188 220 200 201 237 257 259 242 203 205 216 197 205 250 221 197 239 274 229 202 227 245 251 258 272 307 278 262 300 63 254 286 283 158 211 239 240 244 242 240 245 251 262 268 266 263 263 264
268 266 265 267 270 275 286 285 299 327 344 307 331 343 330 246 237 241 42 6 295 220 128 242 181 115 174 214 294 144 155 267 317 35 57 98 237 111 157 219 231 229 176 150 291 240 212 246 243 232 210 166 193 250 218 180 208 269 238 200 213 229 239 238 228 227 240 276 294 188 155 272 286 228 192 216 230 247 249 243 248 256 261 262 262 264 266 262
273 272 267 263 261 256 255 265 286 309 270 292 336 341 337 303 241 186 61 313 286 123 104 272 139 88 354 64 55 109 184 281 90 284 322 90 217 75 198 221 193 217 181 145 255 243 157 207 226 198 169 179 210 234 184 158 199 258 150 160 185 200 213 169 168 208 259 344 285 216 143 252 281 268 173 209 228 246 253 247 252 259 261 264 269 272 272 268
268 272 270 262 253 246 249 257 264 270 259 293 340 332 337 318 272 73 76 253 272 79 71 17 134 353 356 88 26 49 192 337 115 254 319 90 200 85 178 214 169 219 235 174 234 257 187 210 187 160 168 212 225 231 168 166 204 240 111 95 64 72 80 109 169 177 74 310 261 196 161 213 280 280 113 103 225 238 254 255 255 256 259 268 272 275 274 273
257 266 270 256 235 232 238 247 250 245 256 277 321 345 358 323 323 85 222 243 321 301 218 112 161 314 63 115 303 315 211 265 358 357 16 71 350 37 150 202 119 177 261 238 250 253 243 199 137 167 195 203 200 172 166 182 210 312 70 33 18 14 23 55 200 95 79 280 245 179 180 187 282 282 152 181 218 208 228 254 269 269 268 272 272 270 272 274
254 258 264 245 225 225 218 239 250 235 234 253 272 27 21 12 77 154 233 247 28 275 164 69 309 43 105 147 230 279 180 282 303 103 86 99 30 33 79 238 80 71 325 307 274 269 261 202 199 233 208 164 158 145 334 216 192 355 19 20 359 325 357 25 350 59 170 264 238 181 180 173 241 257 194 250 252 211 206 221 258 274 276 274 270 268 272 273
256 253 257 246 232 227 215 230 248 219 215 229 314 39 56 50 193 216 250 342 352 258 129 161 284 93 135 119 245 227 174 264 258 134 158 152 148 179 197 200 172 333 306 265 282 311 279 219 231 286 217 167 161 193 324 355 89 124 134 77 351 314 339 350 313 91 213 257 241 187 173 187 245 251 234 256 262 248 225 211 234 253 260 262 266 275 284 287
258 252 254 248 234 225 225 228 219 197 196 174 81 32 86 135 240 216 234 304 261 262 78 90 49 110 132 29 279 229 174 224 205 151 166 131 162 237 251 220 172 183 256 222 323 319 289 271 194 98 262 188 149 163 239 268 167 154 157 161 161 202 274 270 264 270 259 268 273 184 171 243 270 270 226 233 255 262 231 215 233 243 252 263 275 291 296 294
262 250 251 249 236 230 232 225 215 212 196 152 95 55 110 213 241 152 188 237 251 355 65 89 44 36 129 237 249 212 195 251 165 134 141 93 125 260 266 243 196 166 199 197 301 229 253 292 218 174 245 179 169 197 202 165 161 185 166 143 161 182 212 236 237 259 269 280 311 250 187 224 267 285 234 231 265 297 264 244 256 262 266 276 286 293 294 292
273 254 253 247 232 228 227 222 220 213 187 141 97 126 191 232 243 157 206 231 273 330 323 133 103 62 275 259 275 253 217 253 102 111 172 161 182 214 211 219 200 169 141 187 248 172 202 263 247 211 155 153 180 230 187 118 84 241 134 111 208 202 189 228 239 240 258 290 290 238 223 228 245 282 276 264 276 282 279 284 290 277 266 266 273 278 283 285
281 264 255 237 226 225 224 224 219 199 174 134 115 195 221 233 207 180 204 191 178 174 317 297 149 174 263 263 293 287 206 213 152 123 218 199 205 216 214 226 191 178 176 186 229 212 221 253 254 27 10 172 201 268 200 162 194 254 119 177 244 172 153 224 257 247 247 259 246 235 259 275 290 289 289 300 281 277 294 307 288 272 263 256 269 271 272 281
295 277 246 225 230 232 230 227 208 186 171 141 190 213 223 226 192 183 193 155 165 125 101 265 222 189 243 256 245 223 174 200 175 168 226 223 229 202 201 258 199 187 199 195 216 238 238 265 269 272 283 260 223 280 290 263 157 146 205 224 266 47 136 188 253 273 244 247 245 234 255 272 291 282 289 10 321 290 285 285 283 278 270 268 282 276 278 288
309 284 246 233 235 236 237 224 195 176 164 158 220 230 217 210 204 177 164 136 117 107 138 219 236 186 210 240 243 203 189 218 169 166 207 223 232 180 170 229 202 194 215 198 87 272 246 274 276 269 263 286 25 17 304 293 169 183 249 281 86 253 256 207 191 227 235 248 253 226 243 258 257 260 272 277 271 267 266 271 286 279 272 312 310 302 308 310
304 279 260 231 228 237 231 205 176 160 171 195 225 236 209 216 240 190 184 161 128 148 188 222 234 242 231 215 222 235 218 209 183 192 213 219 236 190 160 213 203 201 218 179 161 251 9 242 281 307 309 345 28 331 264 272 261 209 283 316 300 221 233 223 205 191 231 250 258 238 234 237 235 252 269 268 252 233 248 256 258 264 260 271 292 304 317 318
272 262 264 190 207 222 206 179 157 161 215 209 231 237 197 248 269 248 224 203 175 194 210 216 214 228 240 217 220 245 237 210 197 210 223 229 247 234 185 190 175 188 203 147 168 197 64 224 249 287 305 328 277 217 218 233 232 190 219 241 246 237 250 265 239 188 233 253 254 250 242 229 229 261 266 266 250 208 230 237 239 257 262 263 277 293 307 316
237 247 255 183 197 191 170 155 162 200 211 234 245 243 241 238 251 272 258 217 222 243 175 183 205 218 229 240 240 224 205 217 207 210 229 236 242 245 226 184 168 160 93 58 218 194 180 223 219 225 246 260 254 231 193 190 189 174 186 209 226 230 256 277 259 227 225 245 246 252 256 239 212 251 262 266 257 209 224 232 241 260 278 290 294 295 304 313
233 223 239 236 189 172 153 158 219 196 216 232 233 240 238 204 207 237 245 223 220 244 293 207 217 224 226 245 252 222 199 224 212 211 231 228 223 229 233 186 157 150 139 197 226 203 161 149 207 220 220 241 257 256 213 190 192 202 203 213 235 225 208 238 250 243 240 251 254 258 263 241 185 235 265 275 278 270 249 233 246 270 288 296 296 293 295 293
224 231 356 217 184 169 152 227 212 207 234 237 276 271 226 216 240 226 210 207 206 216 252 233 221 233 231 234 243 225 212 219 211 216 232 232 225 227 229 214 162 129 196 253 252 226 128 106 232 245 244 255 269 276 263 216 197 266 252 228 232 232 230 235 243 252 256 258 261 262 259 237 175 238 264 276 282 283 272 244 243 270 282 276 272 274 276 277
286 277 335 200 186 177 173 220 212 230 231 240 268 255 248 228 230 236 222 203 195 193 206 219 226 238 231 224 227 218 215 224 229 233 230 217 230 240 239 231 215 199 214 224 225 232 221 192 223 254 271 274 270 274 275 246 185 224 246 237 235 235 242 251 257 264 261 246 246 256 258 245 224 256 268 276 280 281 279 269 232 229 265 259 251 267 279 290
323 265 295 205 192 193 226 227 227 237 227 239 245 241 255 250 224 235 232 216 207 190 194 231 227 219 224 229 233 226 222 229 246 259 242 222 256 283 287 269 243 226 242 297 353 325 264 222 215 252 257 259 259 254 268 273 219 225 250 243 244 240 241 250 255 255 253 242 238 247 258 256 251 265 273 279 286 288 288 286 262 214 253 266 268 298 322 340
300 258 290 241 207 220 257 249 236 226 225 239 240 234 240 244 250 222 201 223 233 211 217 260 232 211 221 225 239 247 243 237 240 256 264 263 265 297 348 350 332 292 313 339 14 57 285 243 232 243 248 255 263 263 273 285 280 282 280 261 258 256 245 246 248 247 254 256 247 245 257 262 259 265 274 278 283 284 286 293 302 320 334 341 357 9 14 15
225 262 229 200 237 238 242 240 223 214 214 220 224 232 234 240 255 235 201 223 227 205 225 251 232 230 225 222 239 248 247 244 242 247 256 259 254 286 332 2 6 335 336 343 360 90 190 247 242 245 249 252 261 267 272 274 270 270 273 271 269 267 258 249 248 249 255 264 258 250 256 264 261 260 266 269 274 282 297 318 341 6 17 18 24 27 24 19
240 261 254 288 261 231 239 251 243 232 224 219 224 248 251 248 245 233 226 259 233 190 209 248 234 229 231 234 242 249 248 248 251 251 252 262 303 326 336 360 31 20 38 29 1 72 194 255 248 249 256 254 259 268 269 269 270 269 270 271 269 267 264 258 255 255 254 258 263 263 261 262 264 266 272 287 313 330 347 5 22 32 28 22 23 22 17 12
324 284 293 329 311 265 289 312 319 281 233 230 232 232 245 252 247 241 232 251 273 219 213 234 233 223 232 234 226 226 237 244 256 257 253 12 3 322 320 315 11 56 44 7 341 214 217 257 250 255 269 269 266 270 269 268 271 270 268 266 266 266 265 264 265 265 265 265 267 271 268 266 279 319 339 0 9 3 7 19 30 31 25 21 20 16 12 7
356 345 316 340 314 278 300 304 312 316 258 241 239 225 233 245 248 252 234 210 241 241 213 219 209 164 183 192 196 220 227 222 238 227 80 47 348 330 338 302 321 358 351 334 309 250 242 278 318 310 294 279 272 271 266 262 264 269 270 267 265 267 268 270 273 274 272 271 270 271 270 271 319 1 5 14 13 12 16 20 24 23 18 18 17 12 8 2
270 336 312 317 296 274 297 302 276 285 264 240 240 241 249 252 254 268 264 231 249 244 180 156 126 93 152 186 215 233 217 127 158 205 120 114 254 293 314 274 305 324 315 279 251 280 277 294 320 311 284 271 270 270 272 277 278 274 272 270 267 266 265 265 265 263 265 271 275 276 277 300 350 347 351 10 13 11 11 16 22 18 12 12 9 4 1 356
328 328 291 239 278 270 284 339 300 261 248 241 255 269 266 276 339 339 277 310 51 78 97 91 72 31 274 240 246 218 155 139 179 213 222 211 222 234 233 241 251 257 267 269 260 245 239 258 285 277 275 280 275 276 286 297 289 274 269 276 274 269 270 269 266 272 287 302 295 289 337 14 346 347 1 8 8 360 350 2 28 20 10 8 1 355 352 349